�������l�o���
Date,Time,MP-1(��Sv/h),MP-2(��Sv/h),MP-3(��Sv/h),MP-4(��Sv/h),MP-5(��Sv/h),MP-6(��Sv/h),MP-7(��Sv/h),����,����(m/s),���J
2018/08/22,00:00,0.322,0.202,0.329,0.314,0.293,0.159,0.098,��,8.1,��
2018/08/22,00:10,0.324,0.201,0.327,0.317,0.291,0.160,0.099,��,8.8,��
2018/08/22,00:20,0.326,0.200,0.330,0.319,0.288,0.161,0.097,��,8.9,��
2018/08/22,00:30,0.323,0.201,0.332,0.317,0.288,0.162,0.098,��,9.6,��
2018/08/22,00:40,0.322,0.201,0.329,0.315,0.292,0.161,0.098,��,8.5,��
2018/08/22,00:50,0.324,0.200,0.328,0.318,0.290,0.160,0.098,��쐼,9.2,��
2018/08/22,01:00,0.325,0.202,0.330,0.319,0.288,0.160,0.097,��쐼,10.0,��
2018/08/22,01:10,0.324,0.202,0.333,0.317,0.288,0.161,0.098,��쐼,9.6,��
2018/08/22,01:20,0.321,0.201,0.330,0.315,0.293,0.160,0.098,��쐼,9.2,��
2018/08/22,01:30,0.325,0.199,0.328,0.315,0.290,0.160,0.098,��쐼,9.8,��
2018/08/22,01:40,0.326,0.203,0.330,0.320,0.288,0.161,0.097,��쐼,10.7,��
2018/08/22,01:50,0.323,0.200,0.333,0.318,0.291,0.161,0.098,��쐼,9.8,��
2018/08/22,02:00,0.321,0.199,0.330,0.315,0.293,0.160,0.099,��쐼,9.2,��
2018/08/22,02:10,0.325,0.200,0.328,0.315,0.289,0.159,0.098,��쐼,9.5,��
2018/08/22,02:20,0.324,0.202,0.329,0.321,0.288,0.160,0.098,��쐼,9.3,��
2018/08/22,02:30,0.324,0.201,0.332,0.318,0.292,0.161,0.099,��쐼,10.0,��
2018/08/22,02:40,0.322,0.200,0.330,0.317,0.291,0.161,0.098,��쐼,10.1,��
2018/08/22,02:50,0.327,0.202,0.329,0.314,0.287,0.160,0.097,��쐼,9.2,��
2018/08/22,03:00,0.322,0.201,0.328,0.319,0.288,0.161,0.098,��쐼,9.2,��
2018/08/22,03:10,0.322,0.199,0.332,0.317,0.291,0.162,0.098,��쐼,8.5,��
2018/08/22,03:20,0.324,0.202,0.329,0.316,0.290,0.161,0.098,��쐼,8.3,��
2018/08/22,03:30,0.326,0.202,0.327,0.315,0.287,0.160,0.098,��쐼,7.9,��
2018/08/22,03:40,0.324,0.200,0.330,0.320,0.290,0.159,0.098,��쐼,7.5,��
2018/08/22,03:50,0.323,0.201,0.332,0.318,0.292,0.161,0.098,��쐼,8.1,��
2018/08/22,04:00,0.326,0.201,0.328,0.316,0.289,0.160,0.097,��쐼,8.4,��
2018/08/22,04:10,0.324,0.201,0.328,0.314,0.286,0.160,0.098,��쐼,8.1,��
2018/08/22,04:20,0.322,0.200,0.331,0.319,0.291,0.161,0.098,��쐼,7.6,��
2018/08/22,04:30,0.326,0.202,0.331,0.319,0.291,0.161,0.097,��쐼,8.1,��
2018/08/22,04:40,0.325,0.201,0.329,0.315,0.288,0.160,0.098,��쐼,7.2,��
2018/08/22,04:50,0.320,0.202,0.328,0.314,0.289,0.160,0.098,��쐼,7.9,��
2018/08/22,05:00,0.324,0.201,0.334,0.319,0.293,0.161,0.099,��쐼,7.9,��
2018/08/22,05:10,0.326,0.200,0.330,0.318,0.290,0.161,0.097,��쐼,8.2,��
2018/08/22,05:20,0.324,0.200,0.328,0.316,0.287,0.161,0.099,��쐼,8.1,��
2018/08/22,05:30,0.322,0.203,0.328,0.316,0.288,0.159,0.099,��쐼,7.7,��
2018/08/22,05:40,0.326,0.200,0.332,0.321,0.291,0.161,0.097,��쐼,7.9,��
2018/08/22,05:50,0.325,0.198,0.330,0.318,0.289,0.161,0.098,��쐼,8.3,��
2018/08/22,06:00,0.323,0.202,0.328,0.316,0.288,0.160,0.098,��쐼,7.5,��
2018/08/22,06:10,0.320,0.203,0.327,0.313,0.287,0.160,0.097,��,7.4,��
2018/08/22,06:20,0.326,0.202,0.333,0.316,0.292,0.160,0.097,��쐼,7.7,��
2018/08/22,06:30,0.324,0.199,0.331,0.319,0.291,0.161,0.097,��,8.4,��
2018/08/22,06:40,0.323,0.200,0.328,0.317,0.289,0.161,0.097,��,8.4,��
2018/08/22,06:50,0.320,0.201,0.327,0.316,0.288,0.162,0.097,��쐼,8.8,��
2018/08/22,07:00,0.323,0.201,0.328,0.315,0.287,0.160,0.097,��쐼,8.3,��
2018/08/22,07:10,0.326,0.200,0.332,0.314,0.289,0.159,0.097,��,7.5,��
2018/08/22,07:20,0.324,0.200,0.332,0.317,0.291,0.161,0.098,��,8.3,��
2018/08/22,07:30,0.321,0.200,0.329,0.319,0.291,0.161,0.098,��쐼,9.2,��
2018/08/22,07:40,0.320,0.199,0.328,0.317,0.290,0.162,0.098,��쐼,8.5,��
2018/08/22,07:50,0.319,0.200,0.327,0.318,0.288,0.160,0.098,��,7.5,��
2018/08/22,08:00,0.320,0.199,0.327,0.317,0.287,0.160,0.097,��쐼,9.3,��
2018/08/22,08:10,0.319,0.198,0.327,0.317,0.286,0.160,0.098,��쐼,10.1,��
2018/08/22,08:20,0.321,0.199,0.330,0.317,0.288,0.160,0.098,��쐼,10.1,��
2018/08/22,08:30,0.322,0.200,0.334,0.318,0.287,0.161,0.098,��쐼,10.3,��
2018/08/22,08:40,0.324,0.200,0.332,0.316,0.289,0.160,0.098,��쐼,9.2,��
2018/08/22,08:50,0.325,0.202,0.330,0.317,0.289,0.161,0.098,��쐼,9.8,��
2018/08/22,09:00,0.325,0.202,0.329,0.317,0.290,0.161,0.098,��쐼,8.1,��
2018/08/22,09:10,0.325,0.202,0.329,0.317,0.291,0.162,0.098,��쐼,7.5,��
2018/08/22,09:20,0.324,0.203,0.328,0.319,0.290,0.162,0.099,��쐼,8.1,��
2018/08/22,09:30,0.325,0.203,0.329,0.319,0.291,0.161,0.100,��,7.9,��
2018/08/22,09:40,0.326,0.202,0.327,0.319,0.292,0.161,0.099,��쐼,7.4,��
2018/08/22,09:50,0.327,0.204,0.329,0.321,0.290,0.162,0.099,��쐼,6.5,��
2018/08/22,10:00,0.327,0.203,0.330,0.322,0.292,0.161,0.098,��쐼,7.8,��
2018/08/22,10:10,0.328,0.204,0.328,0.321,0.291,0.159,0.098,��,5.6,��
2018/08/22,10:20,0.325,0.202,0.329,0.320,0.291,0.160,0.098,��,7.0,��
2018/08/22,10:30,0.324,0.202,0.331,0.320,0.290,0.159,0.098,��,8.3,��
2018/08/22,10:40,0.324,0.201,0.330,0.320,0.290,0.159,0.098,-,-,��
2018/08/22,10:50,0.326,0.201,0.330,0.320,0.289,0.159,0.098,-,-,��
2018/08/22,11:00,0.326,0.202,0.331,0.319,0.291,0.160,0.098,-,-,��
2018/08/22,11:10,0.325,0.202,0.333,0.320,0.290,0.159,0.099,-,-,��
2018/08/22,11:20,0.328,0.203,0.333,0.319,0.290,0.159,0.099,-,-,��
2018/08/22,11:30,0.327,0.204,0.333,0.319,0.290,0.159,0.099,-,-,��
2018/08/22,11:40,0.326,0.203,0.334,0.319,0.291,0.159,0.098,-,-,��
2018/08/22,11:50,0.326,0.203,0.333,0.320,0.291,0.159,0.099,-,-,��
2018/08/22,12:00,0.327,0.203,0.333,0.318,0.290,0.160,0.100,-,-,��
2018/08/22,12:10,0.326,0.203,0.333,0.319,0.290,0.158,0.099,-,-,��
2018/08/22,12:20,0.325,0.202,0.332,0.318,0.289,0.159,0.099,-,-,��
2018/08/22,12:30,0.326,0.203,0.333,0.318,0.291,0.159,0.099,-,-,��
2018/08/22,12:40,0.325,0.202,0.333,0.319,0.290,0.158,0.099,-,-,��
2018/08/22,12:50,0.325,0.204,0.332,0.320,0.291,0.159,0.099,-,-,��
2018/08/22,13:00,0.326,0.203,0.333,0.319,0.290,0.159,0.099,-,-,��
2018/08/22,13:10,0.326,0.202,0.331,0.319,0.290,0.159,0.099,-,-,��
2018/08/22,13:20,0.325,0.203,0.332,0.319,0.289,0.160,0.098,-,-,��
2018/08/22,13:30,0.325,0.201,0.331,0.319,0.290,0.159,0.099,-,-,��
2018/08/22,13:40,0.325,0.202,0.330,0.320,0.289,0.160,0.098,-,-,��
2018/08/22,13:50,0.326,0.202,0.331,0.319,0.289,0.159,0.098,-,-,��
2018/08/22,14:00,0.327,0.202,0.330,0.319,0.289,0.160,0.098,-,-,��
2018/08/22,14:10,0.326,0.202,0.330,0.318,0.289,0.159,0.098,-,-,��
2018/08/22,14:20,0.326,0.201,0.330,0.319,0.288,0.158,0.098,-,-,��
2018/08/22,14:30,0.327,0.202,0.331,0.317,0.287,0.159,0.098,-,-,��
2018/08/22,14:40,0.326,0.202,0.329,0.319,0.289,0.161,0.098,-,-,��
2018/08/22,14:50,0.325,0.202,0.329,0.318,0.289,0.159,0.098,-,-,��
2018/08/22,15:00,0.327,0.201,0.327,0.317,0.289,0.160,0.098,-,-,��
2018/08/22,15:10,0.325,0.201,0.328,0.314,0.289,0.159,0.097,-,-,��
2018/08/22,15:20,0.324,0.201,0.328,0.315,0.289,0.160,0.098,-,-,��
2018/08/22,15:30,0.322,0.202,0.327,0.315,0.289,0.160,0.098,-,-,��
2018/08/22,15:40,0.323,0.200,0.327,0.316,0.288,0.159,0.097,-,-,��
2018/08/22,15:50,0.322,0.201,0.328,0.317,0.287,0.159,0.097,-,-,��
2018/08/22,16:00,0.324,0.200,0.329,0.316,0.289,0.159,0.097,-,-,��
2018/08/22,16:10,0.322,0.201,0.328,0.314,0.289,0.159,0.098,-,-,��
2018/08/22,16:20,0.323,0.201,0.328,0.315,0.288,0.160,0.098,-,-,��
2018/08/22,16:30,0.324,0.200,0.328,0.315,0.290,0.161,0.097,-,-,��
2018/08/22,16:40,0.324,0.200,0.330,0.316,0.288,0.161,0.097,-,-,��
2018/08/22,16:50,0.324,0.201,0.330,0.317,0.287,0.161,0.097,-,-,��
2018/08/22,17:00,0.323,0.200,0.328,0.316,0.289,0.160,0.097,��,10.4,��
2018/08/22,17:10,0.324,0.200,0.329,0.317,0.289,0.161,0.099,��,10.9,��
2018/08/22,17:20,0.323,0.201,0.328,0.316,0.289,0.160,0.098,��쐼,9.0,��
2018/08/22,17:30,0.322,0.200,0.329,0.316,0.288,0.161,0.098,��,8.8,��
2018/08/22,17:40,0.322,0.199,0.329,0.315,0.288,0.161,0.097,��쐼,9.5,��
2018/08/22,17:50,0.322,0.199,0.328,0.321,0.288,0.160,0.097,��쐼,9.2,��
2018/08/22,18:00,0.326,0.201,0.330,0.321,0.288,0.160,0.097,��,10.1,��
2018/08/22,18:10,0.326,0.202,0.335,0.319,0.288,0.160,0.099,��,9.8,��
2018/08/22,18:20,0.326,0.202,0.334,0.317,0.287,0.162,0.099,��,9.8,��
2018/08/22,18:30,0.323,0.201,0.331,0.318,0.289,0.162,0.098,��,10.1,��
2018/08/22,18:40,0.323,0.200,0.330,0.316,0.293,0.161,0.097,��,9.2,��
2018/08/22,18:50,0.325,0.201,0.328,0.320,0.292,0.160,0.097,��,10.0,��
2018/08/22,19:00,0.328,0.203,0.329,0.321,0.289,0.162,0.098,��,9.2,��
2018/08/22,19:10,0.326,0.202,0.333,0.318,0.287,0.162,0.098,��,7.6,��
2018/08/22,19:20,0.323,0.201,0.332,0.316,0.288,0.161,0.098,��,6.9,��
2018/08/22,19:30,0.322,0.200,0.330,0.316,0.292,0.161,0.097,��쐼,7.3,��
2018/08/22,19:40,0.327,0.203,0.328,0.320,0.290,0.161,0.098,��쐼,6.0,��
2018/08/22,19:50,0.328,0.202,0.332,0.320,0.287,0.162,0.099,��,5.2,��
2018/08/22,20:00,0.324,0.200,0.334,0.318,0.287,0.162,0.097,��쐼,5.4,��
2018/08/22,20:10,0.323,0.201,0.331,0.315,0.290,0.162,0.097,��쐼,5.3,��
2018/08/22,20:20,0.327,0.203,0.329,0.318,0.292,0.162,0.098,��쐼,5.1,��
2018/08/22,20:30,0.327,0.203,0.328,0.322,0.291,0.161,0.099,��쐼,5.8,��
2018/08/22,20:40,0.325,0.201,0.333,0.319,0.287,0.161,0.098,��쐼,6.5,��
2018/08/22,20:50,0.323,0.201,0.334,0.318,0.288,0.161,0.098,��,6.1,��
2018/08/22,21:00,0.326,0.203,0.330,0.316,0.292,0.160,0.099,��,7.7,��
2018/08/22,21:10,0.328,0.201,0.328,0.320,0.291,0.162,0.098,��,7.4,��
2018/08/22,21:20,0.326,0.201,0.330,0.319,0.290,0.162,0.098,��쐼,6.7,��
2018/08/22,21:30,0.321,0.201,0.333,0.319,0.287,0.161,0.098,��,6.6,��
2018/08/22,21:40,0.325,0.203,0.333,0.315,0.291,0.161,0.098,��쐼,6.2,��
2018/08/22,21:50,0.329,0.201,0.328,0.320,0.293,0.161,0.097,��,6.2,��
2018/08/22,22:00,0.325,0.201,0.328,0.320,0.291,0.161,0.098,��,6.5,��
2018/08/22,22:10,0.322,0.203,0.333,0.318,0.288,0.160,0.099,��,6.1,��
2018/08/22,22:20,0.328,0.203,0.332,0.318,0.288,0.162,0.099,��,6.0,��
2018/08/22,22:30,0.327,0.201,0.331,0.319,0.293,0.162,0.097,��쐼,6.2,��
2018/08/22,22:40,0.325,0.202,0.328,0.321,0.291,0.162,0.097,��쐼,5.9,��
2018/08/22,22:50,0.322,0.204,0.332,0.320,0.289,0.160,0.098,��,5.2,��
2018/08/22,23:00,0.326,0.202,0.332,0.317,0.287,0.162,0.099,��,6.2,��
2018/08/22,23:10,0.326,0.201,0.330,0.317,0.292,0.162,0.099,��,7.0,��
2018/08/22,23:20,0.324,0.202,0.329,0.321,0.291,0.163,0.098,��,8.1,��
2018/08/22,23:30,0.322,0.203,0.334,0.321,0.289,0.161,0.099,��,7.7,��
2018/08/22,23:40,0.327,0.202,0.335,0.317,0.289,0.163,0.100,��쐼,6.4,��
2018/08/22,23:50,0.327,0.202,0.330,0.316,0.292,0.162,0.098,��쐼,4.2,��
